Skip Page Navigation
NASA JPL Caltech
NASA Logo - Jet Propulsion Laboratory + View the NASA Portal
+ Center for Near-Earth Object Studies
JPL Home Earth Solar System Stars & Galaxies Technology
JPL Solar System Dynamics
BODIES ORBITS EPHEMERIDES TOOLS PHYSICAL DATA DISCOVERY FAQ SITE MAP
IMPORTANT: The SSD Announcement email list is now available. Major changes are coming in the near future, including possible hostname and/or URL changes. To be notified of such changes, subscribe to this email list.

Please visit this page for more details.


JPL Small-Body Database Browser
Search: [ help ]  
48687 (1996 EO6)
Classification: Main-belt Asteroid          SPK-ID: 2048687
Ephemeris | Orbit Diagram | Orbital Elements | Mission Design | Physical Parameters | Discovery Circumstances | Close-Approach Data ]

[ show orbit diagram ]
Orbital Elements at Epoch 2458600.5 (2019-Apr-27.0) TDB
Reference: JPL 19 (heliocentric ecliptic J2000)
 Element Value Uncertainty (1-sigma)   Units 
e .1677786981266517 5.6978e-08  
a 2.566631335354359 1.5158e-08 au
q 2.136005271337535 1.5241e-07 au
i 13.39844387353351 5.7379e-06 deg
node 170.6302385729237 2.1826e-05 deg
peri 212.1173416980671 2.9895e-05 deg
M .5840049356202935 2.4618e-05 deg
tp 2458598.063548998790
(2019-Apr-24.56354900)
0.00010269 TDB
period 1501.909156818949
4.11
1.3305e-05
3.643e-08
d
yr
n .2396949232019344 2.1234e-09 deg/d
Q 2.997257399371184 1.7701e-08 au
  Orbit Determination Parameters
   # obs. used (total)      676  
   data-arc span      8159 days (22.34 yr)  
   first obs. used      1996-03-11  
   last obs. used      2018-07-13  
   planetary ephem.      DE431  
   SB-pert. ephem.      SB431-N16  
   condition code      0  
   norm. resid. RMS      .60452  
   source      ORB  
   producer      Otto Matic  
   solution date      2018-Oct-04 00:30:56  

Additional Information
 Earth MOID = 1.14764 au 
 Jupiter MOID = 2.48531 au 
 T_jup = 3.374 
[ show covariance matrix ]

Ephemeris | Orbit Diagram | Orbital Elements | Mission Design | Physical Parameters | Discovery Circumstances | Close-Approach Data ]

Physical Parameter Table
Parameter Symbol Value Units Sigma Reference Notes
absolute magnitude H 15.2   n/a MPO395462  
diameter diameter 2.304 km 0.234 urn:nasa:pds:neowise_diameters_albedos::2.0[mainbelt] (http://adsabs.harvard.edu/abs/2011ApJ...741...68M)  
geometric albedo albedo 0.252   0.049 urn:nasa:pds:neowise_diameters_albedos::2.0[mainbelt] (http://adsabs.harvard.edu/abs/2011ApJ...741...68M)  

48687 (1996 EO6)          Discovered 1996-Mar-11 by Spacewatch at Kitt Peak
Reference: 20021120/Numbers.arcLast Updated: 2004-04-19

[ show close-approach data ]
Alternate Designations
 1996 EO6 = 2000 EV187 
Ephemeris | Orbit Diagram | Orbital Elements | Mission Design | Physical Parameters | Discovery Circumstances | Close-Approach Data ]
ABOUT SSD CREDITS/AWARDS PRIVACY/COPYRIGHT GLOSSARY LINKS
FirstGov
(server date/time)  
NASA Home Page
Site Manager:   Ryan S. Park
Webmaster  Alan B. Chamberlin